Location: Maiden
(35.5760°N, 81.2120°W)
Time: 02:55:29
(UTC-04:00)

COSMOS 2406 - Pass Details

Date: 02 August 2020
Orbit: 844 x 863 km, 71.0° (Epoch: 11 August)

Event Time Altitude Azimuth Distance (km) Brightness Sun altitude
Exits shadow 22:02:29 26° 154° (SSE) 1,647 4.2 -17.6°
Maximum altitude 22:05:05 39° 105° (ESE) 1,262 3.6 -18.0°
Drops below altitude 10° 22:10:22 10° 38° (NE) 2,500 5.7 -18.8°
Sets 22:12:58 0° 31° (NNE) 3,438 6.5 -19.3°
